Find Starlink 4032

NORAD ID: 52688 Int'l Des: 2022-053 Owner: SPXS Country: US Constellation: starlink operational
LEOCIRCULAR

当前视图

正在加载3D地球...

About Starlink 4032

Starlink 4032 (NORAD 52688) is a starlink constellation satellite (v1.5) launched May 18, 2022 by SPXS of US. It operates in LEO, CIRCULAR orbit with a mass of 297.00 kg.

关于 Starlink 4032

正在加载描述...

即将过境

Passes for default location (London). Set your location on the main map for personalized predictions.

高度历史

Loading altitude history...

两行轨道根数

1 52688U 22053AJ 26174.97064879 .00000214 00000-0 31571-4 0 9999
2 52688 53.1596 26.7550 0001388 90.8878 269.2273 15.08834084227165
Epoch: Jun 23, 2026 • Age: 12 hours

当前状态

高度 553.7 km
速度 7.58 km/s
星下点 -39.92°S, 103.48°W
发射日期 May 18, 2022
运行时间 4.1 years
类型 internet

技术详情

分类 Payload
质量 297.00 kg
干质量 275.00 kg
总质量 297.00 kg
长度 0.20 m
直径 2.80 m
跨度 9.00 m
形状 Box + pan
制造商 SPXS
平台类型 Starlink
阶段状态 In Orbit
所有者/国家 SPXS/US

Most Searched